• în Republica Moldova
  • Lista ţărilor
  • Pe 7 zile
  • Temperatura apei
  • Hartă satelitară
  • Meteo pe hartă
  • Widget-uri
  • user-avatar
    Intrare

    Meteo pe oră la Brilev

    Astăzi, 20 Septembrie, Joi

    Timp Temperatura Precipitaţii Vânt Presiune Umiditate
    00:00 +17°C° 0 mm 2 m/s 752 mmHg 84%
    01:00 +16°C° 0 mm 2 m/s 752 mmHg 85%
    02:00 +16°C° 0 mm 2 m/s 752 mmHg 87%
    03:00 +16°C° 0 mm 2 m/s 752 mmHg 88%
    04:00 +15°C° 0 mm 2 m/s 752 mmHg 89%
    05:00 +15°C° 0 mm 2 m/s 752 mmHg 90%
    06:00 +16°C° 0 mm 2 m/s 752 mmHg 86%
    07:00 +17°C° 0 mm 2 m/s 752 mmHg 82%
    08:00 +18°C° 0 mm 2 m/s 752 mmHg 77%
    09:00 +20°C° 0 mm 2 m/s 753 mmHg 71%
    10:00 +23°C° 0 mm 2 m/s 753 mmHg 65%
    11:00 +25°C° 0 mm 3 m/s 753 mmHg 59%
    12:00 +26°C° 0 mm 3 m/s 753 mmHg 57%
    13:00 +27°C° 0 mm 3 m/s 752 mmHg 54%
    14:00 +28°C° 0 mm 3 m/s 752 mmHg 52%
    15:00 +27°C° 0 mm 2 m/s 752 mmHg 56%
    16:00 +26°C° 0 mm 2 m/s 752 mmHg 59%
    17:00 +25°C° 0 mm 1 m/s 752 mmHg 63%
    18:00 +24°C° 0 mm 1 m/s 752 mmHg 67%
    19:00 +22°C° 0 mm 1 m/s 752 mmHg 71%
    20:00 +21°C° 0 mm 1 m/s 752 mmHg 75%
    21:00 +20°C° 0 mm 1 m/s 752 mmHg 77%
    22:00 +20°C° 0 mm 1 m/s 752 mmHg 78%
    23:00 +19°C° 0 mm 1 m/s 753 mmHg 80%

    Mâine, 21 Septembrie, Vineri

    Timp Temperatura Precipitaţii Vânt Presiune Umiditate
    00:00 +19°C° 0 mm 1 m/s 753 mmHg 82%
    01:00 +19°C° 0 mm 1 m/s 753 mmHg 83%
    02:00 +18°C° 0 mm 1 m/s 753 mmHg 84%
    03:00 +18°C° 0 mm 1 m/s 753 mmHg 85%
    04:00 +18°C° 0 mm 1 m/s 753 mmHg 86%
    05:00 +16°C° 0 mm 1 m/s 753 mmHg 87%
    06:00 +19°C° 0 mm 1 m/s 753 mmHg 82%
    07:00 +20°C° 0 mm 1 m/s 753 mmHg 78%
    08:00 +21°C° 0 mm 1 m/s 753 mmHg 73%
    09:00 +23°C° 0 mm 1 m/s 753 mmHg 67%
    10:00 +24°C° 0 mm 1 m/s 753 mmHg 61%
    11:00 +26°C° 0 mm 2 m/s 753 mmHg 56%
    12:00 +27°C° 0 mm 2 m/s 753 mmHg 53%
    13:00 +27°C° 0 mm 2 m/s 753 mmHg 51%
    14:00 +28°C° 0 mm 2 m/s 752 mmHg 48%
    15:00 +27°C° 0 mm 2 m/s 752 mmHg 52%
    16:00 +26°C° 0 mm 2 m/s 752 mmHg 56%
    17:00 +25°C° 0 mm 2 m/s 751 mmHg 60%
    18:00 +24°C° 0 mm 2 m/s 751 mmHg 64%
    19:00 +21°C° 0 mm 2 m/s 751 mmHg 67%
    20:00 +20°C° 0 mm 2 m/s 751 mmHg 70%
    21:00 +19°C° 0 mm 3 m/s 751 mmHg 71%
    22:00 +19°C° 0 mm 3 m/s 751 mmHg 72%
    23:00 +18°C° 0 mm 3 m/s 751 mmHg 74%

    Poimâine, 22 Septembrie, Sâmbătă

    Timp Temperatura Precipitaţii Vânt Presiune Umiditate
    00:00 +18°C° 0 mm 3 m/s 751 mmHg 74%
    01:00 +17°C° 0 mm 3 m/s 750 mmHg 75%
    02:00 +17°C° 0 mm 3 m/s 750 mmHg 75%
    03:00 +17°C° 0 mm 4 m/s 750 mmHg 75%
    04:00 +17°C° 0 mm 4 m/s 750 mmHg 75%
    05:00 +17°C° 0 mm 4 m/s 749 mmHg 75%
    06:00 +17°C° 0 mm 4 m/s 749 mmHg 71%
    07:00 +17°C° 0 mm 5 m/s 749 mmHg 68%
    08:00 +19°C° 0 mm 5 m/s 749 mmHg 65%
    09:00 +21°C° 0 mm 5 m/s 748 mmHg 59%
    10:00 +22°C° 0 mm 5 m/s 748 mmHg 53%
    11:00 +24°C° 0 mm 6 m/s 748 mmHg 47%
    12:00 +25°C° 0 mm 5 m/s 748 mmHg 48%
    13:00 +25°C° 0 mm 5 m/s 748 mmHg 49%
    14:00 +25°C° 0 mm 5 m/s 748 mmHg 49%
    15:00 +22°C° 0.1 mm 5 m/s 748 mmHg 58%
    16:00 +19°C° 0.1 mm 5 m/s 748 mmHg 67%
    17:00 +16°C° 0.1 mm 5 m/s 748 mmHg 76%
    18:00 +15°C° 0.1 mm 5 m/s 748 mmHg 77%
    19:00 +14°C° 0.1 mm 5 m/s 749 mmHg 78%
    20:00 +13°C° 0.1 mm 4 m/s 749 mmHg 79%
    21:00 +12°C° 0.7 mm 4 m/s 749 mmHg 82%
    22:00 +11°C° 0.7 mm 4 m/s 749 mmHg 85%
    23:00 +10°C° 0.7 mm 3 m/s 749 mmHg 88%

    23 Septembrie, Duminică

    Timp Temperatura Precipitaţii Vânt Presiune Umiditate
    00:00 +10°C° 1.1 mm 3 m/s 749 mmHg 89%
    01:00 +9°C° 1.1 mm 3 m/s 749 mmHg 90%
    02:00 +9°C° 1.1 mm 3 m/s 749 mmHg 92%
    03:00 +9°C° 0.5 mm 3 m/s 749 mmHg 91%
    04:00 +8°C° 0.5 mm 4 m/s 749 mmHg 91%
    05:00 +8°C° 0.5 mm 4 m/s 749 mmHg 91%
    06:00 +8°C° 0 mm 4 m/s 749 mmHg 90%
    07:00 +8°C° 0 mm 4 m/s 749 mmHg 89%
    08:00 +10°C° 0 mm 4 m/s 748 mmHg 87%
    09:00 +10°C° 0 mm 5 m/s 748 mmHg 80%
    10:00 +13°C° 0 mm 5 m/s 748 mmHg 72%
    11:00 +14°C° 0 mm 6 m/s 748 mmHg 65%
    12:00 +15°C° 0.2 mm 6 m/s 748 mmHg 60%
    13:00 +15°C° 0.2 mm 6 m/s 748 mmHg 56%
    14:00 +16°C° 0.2 mm 7 m/s 748 mmHg 52%
    15:00 +15°C° 0 mm 6 m/s 748 mmHg 54%
    16:00 +14°C° 0 mm 5 m/s 748 mmHg 56%
    17:00 +14°C° 0 mm 4 m/s 748 mmHg 58%
    18:00 +13°C° 0 mm 3 m/s 748 mmHg 61%
    19:00 +11°C° 0 mm 3 m/s 748 mmHg 64%
    20:00 +10°C° 0 mm 3 m/s 749 mmHg 67%
    21:00 +9°C° 0 mm 3 m/s 749 mmHg 69%
    22:00 +9°C° 0 mm 3 m/s 749 mmHg 71%
    23:00 +8°C° 0 mm 3 m/s 748 mmHg 73%

    24 Septembrie, Luni

    Timp Temperatura Precipitaţii Vânt Presiune Umiditate
    00:00 +8°C° 0 mm 2 m/s 748 mmHg 74%
    01:00 +8°C° 0 mm 2 m/s 748 mmHg 75%
    02:00 +7°C° 0 mm 2 m/s 747 mmHg 75%
    03:00 +8°C° 0 mm 2 m/s 747 mmHg 74%
    04:00 +8°C° 0 mm 3 m/s 747 mmHg 73%
    05:00 +8°C° 0 mm 3 m/s 746 mmHg 71%
    06:00 +8°C° 0.1 mm 4 m/s 745 mmHg 73%
    07:00 +8°C° 0.1 mm 5 m/s 745 mmHg 75%
    08:00 +9°C° 0.1 mm 5 m/s 744 mmHg 77%
    09:00 +9°C° 1 mm 6 m/s 743 mmHg 79%
    10:00 +9°C° 1 mm 6 m/s 742 mmHg 81%
    11:00 +9°C° 1 mm 6 m/s 742 mmHg 83%
    12:00 +10°C° 0.4 mm 7 m/s 740 mmHg 82%
    13:00 +10°C° 0.4 mm 7 m/s 739 mmHg 80%
    14:00 +11°C° 0.4 mm 8 m/s 737 mmHg 79%
    15:00 +12°C° 1.8 mm 7 m/s 736 mmHg 81%
    16:00 +14°C° 1.8 mm 7 m/s 734 mmHg 83%
    17:00 +15°C° 1.8 mm 6 m/s 733 mmHg 85%
    18:00 +14°C° 2.6 mm 6 m/s 732 mmHg 86%
    19:00 +14°C° 2.6 mm 6 m/s 732 mmHg 88%
    20:00 +14°C° 2.6 mm 6 m/s 731 mmHg 89%
    21:00 +13°C° 0.1 mm 6 m/s 731 mmHg 87%
    22:00 +11°C° 0.1 mm 7 m/s 731 mmHg 85%
    23:00 +10°C° 0.1 mm 7 m/s 731 mmHg 83%

    25 Septembrie, Marţi

    Timp Temperatura Precipitaţii Vânt Presiune Umiditate
    00:00 +10°C° 0.2 mm 7 m/s 730 mmHg 84%
    01:00 +9°C° 0.2 mm 8 m/s 730 mmHg 84%
    02:00 +9°C° 0.2 mm 8 m/s 730 mmHg 85%
    03:00 +9°C° 0.1 mm 8 m/s 730 mmHg 85%
    04:00 +9°C° 0.1 mm 7 m/s 730 mmHg 85%
    05:00 +8°C° 0.1 mm 6 m/s 730 mmHg 85%
    06:00 +8°C° 0.3 mm 7 m/s 730 mmHg 85%
    07:00 +8°C° 0.3 mm 7 m/s 731 mmHg 85%
    08:00 +7°C° 0.3 mm 8 m/s 732 mmHg 85%
    09:00 +7°C° 0.1 mm 8 m/s 733 mmHg 84%
    10:00 +7°C° 0.1 mm 8 m/s 734 mmHg 82%
    11:00 +7°C° 0.1 mm 8 m/s 736 mmHg 81%
    12:00 +7°C° 0.3 mm 8 m/s 737 mmHg 81%
    13:00 +7°C° 0.3 mm 8 m/s 738 mmHg 80%
    14:00 +7°C° 0.3 mm 9 m/s 739 mmHg 80%
    15:00 +7°C° 0.2 mm 8 m/s 740 mmHg 79%
    16:00 +6°C° 0.2 mm 8 m/s 741 mmHg 78%
    17:00 +6°C° 0.2 mm 7 m/s 742 mmHg 77%
    18:00 +6°C° 0 mm 7 m/s 742 mmHg 78%
    19:00 +5°C° 0 mm 6 m/s 743 mmHg 78%
    20:00 +6°C° 0 mm 5 m/s 744 mmHg 78%
    21:00 +6°C° 0 mm 5 m/s 744 mmHg 78%
    22:00 +5°C° 0 mm 5 m/s 745 mmHg 79%
    23:00 +5°C° 0 mm 5 m/s 746 mmHg 79%
    Arată mai mult